Temperature
26 23 22 23 24 25 26 26 25 26 27 25 24 23 22 22 21 21 20 20 20 20 20 19 19 19 19 19 19 19 19 18 18 18 18 18 18 18 18 17 17 17 17 16
23 23 25 26 27 27 26 26 26 26 26 25 23 22 22 22 21 21 20 20 20 19 19 19 19 19 19 19 19 19 19 18 18 18 18 18 18 18 17 17 17 17 16 16
23 25 27 27 27 27 27 26 26 26 25 23 23 22 21 21 21 21 21 21 20 20 19 19 19 19 19 19 19 19 19 18 18 18 18 18 18 17 17 17 17 16 16 16
24 26 27 27 27 27 25 27 27 26 23 21 22 21 21 20 20 21 20 20 20 20 19 19 19 19 19 19 19 19 18 18 18 18 18 18 18 17 17 17 17 16 16 16
24 26 26 26 27 28 26 27 26 24 22 20 20 20 20 19 20 20 20 20 20 20 20 20 19 19 19 19 19 18 18 18 18 18 18 18 18 18 17 17 17 16 16 16
25 26 26 27 28 28 27 25 23 20 19 20 20 20 19 18 19 20 20 21 20 20 20 20 19 19 19 18 18 18 18 18 18 18 18 18 18 17 17 17 17 16 16 16
24 26 27 27 26 26 26 22 21 21 19 20 19 19 19 20 20 20 21 21 21 21 20 20 19 19 19 18 18 18 18 18 18 18 18 18 17 17 17 17 17 17 16 16
23 23 25 26 26 25 25 23 21 21 20 19 19 19 19 21 21 21 22 22 21 21 20 20 20 19 19 18 18 18 18 18 18 18 18 18 17 17 17 17 17 17 17 17
22 23 26 27 28 26 25 23 22 20 20 19 19 19 20 20 21 21 21 21 21 21 21 20 20 20 19 19 19 18 18 18 18 18 18 18 18 17 17 17 17 17 17 17
23 23 25 26 27 26 25 23 20 20 20 20 20 19 19 20 20 21 20 21 21 21 21 21 20 20 20 19 19 19 19 19 18 18 18 18 18 18 18 17 17 17 17 17
23 23 24 24 25 25 24 23 20 18 19 19 19 19 20 20 20 20 20 21 21 21 21 21 21 20 20 19 19 19 19 19 18 18 18 18 18 18 17 17 17 17 17 17
23 21 21 22 23 24 23 22 20 20 19 18 18 19 21 19 19 20 20 21 21 21 22 21 21 20 20 19 19 19 19 19 19 19 18 18 18 18 18 18 17 17 17 17
23 20 21 21 22 22 22 21 19 18 17 18 18 19 20 19 19 20 20 21 21 21 21 21 21 20 20 20 19 19 19 19 19 19 18 18 18 18 18 18 18 17 17 17
22 20 20 21 21 21 22 22 20 19 18 18 19 20 19 19 19 19 20 20 21 21 21 21 20 20 20 20 20 19 19 19 19 19 19 19 18 18 18 18 18 17 17 17
20 19 20 21 22 22 22 22 22 20 19 19 20 19 19 19 19 19 20 20 20 20 20 20 20 20 20 20 19 19 19 19 19 18 18 18 18 18 18 18 18 17 17 17
18 19 20 21 22 22 22 23 22 22 21 20 20 19 19 19 19 19 19 19 19 19 19 19 19 20 19 19 19 19 19 19 18 18 18 18 18 17 17 17 17 17 17 16
17 18 18 19 20 21 21 21 22 21 21 20 20 19 18 18 18 18 18 18 18 18 18 18 18 18 19 19 19 18 18 18 18 18 17 17 17 17 17 17 16 16 16 16
17 17 16 17 19 20 20 20 21 21 20 19 19 18 18 17 17 18 18 18 17 17 17 17 17 17 18 18 18 18 17 17 17 17 17 17 17 17 17 16 16 16 16 16
16 16 16 16 17 19 20 20 20 19 19 19 18 18 17 17 16 15 16 17 16 16 16 16 16 16 17 17 17 17 16 16 16 16 16 16 16 16 16 16 16 15 15 15
15 15 16 16 17 18 19 19 20 19 17 18 18 17 17 17 15 14 15 15 15 15 15 15 15 16 16 15 16 16 16 15 15 15 15 15 15 15 15 15 15 14 14 14
15 15 15 16 16 17 18 18 19 18 17 18 18 17 17 16 15 14 14 15 15 15 15 15 15 15 15 15 15 15 15 14 14 14 14 14 14 14 14 14 13 13 13 13
14 15 15 15 16 16 17 17 17 17 17 17 17 17 16 15 14 14 14 14 14 14 14 14 14 14 13 14 14 14 13 13 13 13 13 13 13 13 13 13 13 13 13 12
13 14 14 14 15 15 15 16 17 17 17 17 17 16 16 15 14 14 14 13 13 13 13 13 13 13 13 13 13 13 12 12 13 13 13 12 12 12 12 12 12 12 12 12
14 13 13 14 14 14 15 16 17 17 17 17 17 16 16 14 14 13 13 13 13 13 13 13 13 12 12 12 12 12 12 12 12 12 12 12 12 12 12 12 12 11 11 11
14 14 14 14 14 14 15 15 16 16 16 16 16 15 15 14 14 13 13 13 13 12 12 12 12 12 11 11 11 11 11 11 12 11 11 11 11 11 11 11 11 11 11 10
14 14 14 14 14 14 14 15 16 16 15 15 15 14 14 14 14 13 13 13 12 12 12 12 12 11 11 11 11 11 11 11 11 11 11 11 11 11 11 11 10 10 10 10
Wind_Speed
5 1 8 12 10 13 11 11 10 7 2 2 2 3 4 6 8 9 9 9 11 10 8 9 11 11 11 11 11 11 11 9 9 7 7 7 6 5 5 5 9 9 9 8
5 9 15 13 14 13 13 10 7 3 2 3 1 1 4 7 8 10 11 11 11 10 9 10 11 11 12 12 12 12 11 10 9 7 6 6 6 5 5 4 6 9 9 8
11 13 11 11 14 12 11 7 5 3 1 5 4 3 2 3 3 6 8 10 11 14 14 14 13 12 12 12 13 13 12 11 10 9 6 6 5 4 3 4 4 5 9 8
10 13 12 13 14 11 9 7 3 0 3 3 3 2 5 3 3 5 7 9 11 12 12 12 13 13 13 13 12 11 11 11 10 9 9 10 7 6 6 5 5 5 7 8
9 8 9 12 13 10 8 5 1 2 4 3 4 2 7 4 3 5 7 10 11 12 13 14 14 14 13 12 12 11 11 10 10 9 11 10 7 5 4 5 6 5 4 6
13 12 9 11 13 9 6 3 6 6 6 3 2 1 6 3 5 5 6 9 11 12 12 12 12 10 9 10 11 11 12 10 10 10 10 10 9 8 7 6 7 5 4 4
11 13 12 10 11 10 4 3 5 6 5 3 2 2 7 8 7 6 7 9 11 12 12 11 11 11 11 12 12 12 13 11 10 10 10 10 10 10 10 9 8 7 5 4
9 10 9 8 9 8 7 6 6 5 5 3 2 4 7 8 6 5 5 8 10 12 12 14 14 14 13 14 13 13 13 12 12 11 10 9 9 7 7 8 8 8 7 7
10 10 8 7 6 5 4 4 7 7 2 1 3 5 7 5 5 3 4 7 10 13 14 14 14 14 14 14 14 14 14 12 12 11 10 9 9 8 8 8 8 7 7 7
10 7 8 6 2 2 5 5 5 5 4 2 2 4 5 5 5 3 3 6 9 10 12 13 13 13 13 13 12 12 12 12 11 11 10 10 9 8 8 7 8 8 8 7
6 8 7 3 4 6 1 2 4 4 5 6 4 6 6 7 5 4 4 5 8 9 10 11 12 12 12 11 11 12 12 11 11 11 10 9 8 8 8 8 8 8 7 8
3 6 5 6 5 3 5 6 7 5 3 4 5 6 5 6 6 5 4 4 7 8 9 10 11 11 11 11 11 12 12 12 11 11 10 9 8 8 8 8 8 8 8 9
1 4 1 5 5 4 3 3 5 6 5 4 5 5 3 2 3 3 3 3 4 6 6 7 8 9 11 11 11 11 12 12 11 10 10 10 9 9 10 9 8 8 8 8
2 3 6 8 8 5 3 3 4 6 5 5 7 6 4 4 4 4 3 3 4 4 6 6 6 6 7 8 9 9 10 10 10 10 10 10 10 10 10 9 8 8 8 9
4 0 3 5 6 4 4 6 7 7 8 8 8 7 8 9 8 6 4 3 4 4 5 6 6 6 6 6 6 7 7 7 7 7 8 9 8 7 6 6 7 7 8 10
3 1 2 3 2 3 4 5 6 6 5 5 4 4 5 6 4 4 4 6 5 5 6 6 5 5 5 5 5 5 5 5 5 5 4 3 3 4 4 4 5 5 6 7
1 2 1 3 4 1 4 5 4 3 3 6 7 6 5 6 5 5 6 7 7 7 8 7 6 5 5 5 5 5 6 7 8 6 4 3 4 3 3 3 3 5 5 5
4 3 3 2 1 5 6 3 3 5 2 1 5 8 9 9 7 7 7 10 9 10 10 9 8 8 7 6 7 7 7 8 8 6 4 4 3 3 2 2 3 4 4 5
3 5 4 3 4 4 3 2 1 4 2 3 11 13 13 13 12 11 10 11 12 12 12 11 10 10 10 10 9 10 9 8 8 6 5 4 4 3 3 2 1 1 2 3
4 4 4 3 4 6 4 3 0 6 2 2 10 14 13 9 6 4 7 12 14 13 12 12 11 12 13 10 10 13 11 10 8 6 5 4 5 5 4 3 2 2 2 3
2 2 2 3 4 4 3 4 2 4 7 6 8 12 9 6 8 11 12 13 12 12 12 12 13 12 10 9 11 12 11 9 6 6 7 6 6 5 5 4 4 4 5 5
2 2 2 3 4 5 2 1 2 4 3 7 7 9 13 16 17 16 15 13 12 12 12 12 13 12 9 9 11 12 9 6 6 7 8 8 7 6 7 7 6 6 6 6
2 3 3 3 3 2 1 2 1 4 7 6 8 12 17 18 17 16 15 12 11 11 11 10 11 11 9 9 10 11 7 6 7 8 7 6 6 6 6 6 6 5 5 5
2 2 2 1 1 3 4 3 3 5 7 9 12 15 17 18 17 16 14 12 10 10 10 9 11 11 9 8 9 8 7 7 8 8 7 6 6 6 5 4 4 4 3 3
2 1 2 2 1 4 5 3 6 9 13 15 14 15 17 19 17 15 13 11 10 9 8 8 9 10 8 8 8 8 7 8 9 8 7 7 6 6 5 4 4 3 2 3
1 3 4 3 4 4 1 3 9 13 14 16 18 17 15 16 16 14 12 10 9 9 8 8 8 8 7 7 7 7 7 8 8 7 6 5 5 5 5 5 6 10 9 11
Wind_Direction
275 264 255 252 239 239 261 274 282 285 261 127 163 170 183 168 170 177 181 183 178 178 175 168 168 170 168 162 164 162 161 159 146 141 143 143 148 153 149 152 151 144 137 127
306 269 256 264 271 272 271 278 282 311 14 107 124 142 196 182 190 186 183 183 176 166 168 176 174 175 177 169 168 163 164 163 157 156 155 150 150 158 159 153 155 153 144 138
233 253 271 282 285 284 279 259 249 245 18 44 77 1 304 253 219 198 188 182 175 174 177 180 180 183 178 175 174 173 170 168 165 158 140 128 113 108 118 149 166 166 152 145
242 257 266 274 278 281 283 271 227 161 64 359 42 315 294 292 267 212 198 188 185 179 177 179 183 183 183 184 176 171 172 168 167 159 153 154 157 165 183 176 174 174 164 155
241 253 265 271 271 281 273 281 357 66 90 51 20 57 300 339 306 255 213 199 191 181 180 183 185 185 184 181 177 174 172 171 170 167 163 162 164 170 169 162 163 172 172 168
241 255 252 260 275 280 277 6 28 45 67 32 302 159 284 270 257 268 223 202 196 184 183 184 183 177 179 180 179 175 172 177 176 172 168 169 173 171 164 167 172 179 180 179
258 265 264 262 277 295 312 64 13 356 12 260 239 185 255 253 257 249 226 205 194 187 182 181 178 179 179 181 183 180 177 182 181 176 176 179 180 175 176 176 179 180 181 190
224 262 251 239 225 241 260 161 175 214 221 247 243 239 258 266 270 263 228 200 190 188 186 184 185 184 185 185 183 182 183 186 184 183 183 182 179 177 179 179 179 188 191 194
201 238 246 241 245 203 239 241 178 146 143 143 245 285 300 298 303 280 215 192 195 192 189 187 186 186 187 186 185 185 185 185 187 186 181 185 184 179 182 184 184 191 196 197
184 227 266 259 288 308 183 168 91 110 151 204 245 254 248 266 265 274 224 199 199 193 189 186 186 189 188 187 185 183 183 186 187 188 188 193 194 190 188 188 194 196 199 195
188 202 268 307 220 223 189 117 123 131 151 156 205 249 225 219 225 223 219 203 188 184 185 187 188 187 184 183 183 185 187 187 188 191 193 196 196 197 194 196 201 198 195 190
201 170 231 254 261 219 173 169 146 151 203 164 175 248 233 202 204 207 206 188 176 181 182 184 185 181 180 183 185 188 188 191 193 193 194 199 199 198 200 205 204 195 193 190
10 114 91 335 338 5 106 148 144 132 128 157 171 245 223 198 203 220 187 165 156 168 173 172 173 181 184 186 188 190 191 193 193 190 195 200 202 202 208 210 204 196 193 190
73 124 167 205 227 217 211 199 167 135 156 188 204 204 208 216 201 213 199 151 120 144 162 162 161 172 177 180 181 188 194 194 192 192 196 203 207 207 208 207 201 197 193 190
50 136 233 232 233 205 214 213 197 187 185 183 210 197 207 201 194 198 185 137 110 117 134 144 153 162 161 166 176 184 187 185 187 189 197 206 207 204 203 203 202 202 201 200
41 65 339 310 259 261 254 230 206 199 181 184 165 218 206 176 152 152 139 121 117 116 115 113 115 133 143 146 148 143 145 150 149 162 184 185 166 170 184 202 206 203 209 205
179 128 65 274 287 343 259 243 200 191 158 161 190 205 149 133 139 146 129 114 110 104 102 98 95 102 111 120 122 122 126 118 115 117 120 122 132 160 188 208 216 215 210 198
165 141 147 175 82 221 240 269 150 125 99 130 133 125 119 118 96 79 100 108 102 95 94 92 90 89 86 87 94 96 93 99 104 102 100 114 123 144 158 183 220 219 207 191
159 148 147 158 194 243 275 297 138 114 44 103 127 128 124 114 83 56 60 88 92 88 84 80 78 81 79 76 79 83 79 83 89 89 83 87 104 111 115 119 133 193 180 169
60 103 133 156 186 211 240 299 350 107 109 208 140 143 144 127 109 107 87 89 87 84 82 81 78 77 76 73 81 82 76 75 74 75 79 74 82 89 89 90 99 88 105 123
22 49 136 171 206 238 265 310 32 158 197 188 158 147 139 122 132 125 104 92 90 88 85 84 81 77 72 72 82 81 75 71 69 70 67 62 67 74 74 67 58 63 70 74
197 179 172 161 192 235 298 53 159 192 159 143 133 126 113 111 113 112 106 101 98 93 87 84 84 76 65 65 78 78 67 58 60 65 64 58 55 62 72 74 61 64 76 75
212 202 184 186 214 284 9 117 160 136 130 127 130 125 122 120 118 114 109 106 101 98 94 88 88 82 67 59 71 75 60 54 58 57 55 55 57 56 61 73 75 69 72 80
267 215 154 121 359 36 34 45 67 106 116 123 126 125 123 120 117 113 111 109 104 100 98 94 91 85 74 64 65 67 57 56 60 55 46 44 52 51 51 60 74 81 84 91
246 201 136 106 88 50 32 61 95 98 105 107 111 117 121 120 118 116 114 113 111 105 98 95 95 92 84 73 65 61 62 63 59 51 44 42 45 49 45 41 45 59 64 107
238 196 157 174 182 138 130 90 110 107 109 116 115 109 109 115 118 116 115 114 112 107 102 97 95 93 85 77 67 56 56 64 62 50 41 39 38 40 45 51 50 49 61 68
Height
1495 1501 1504 1498 1495 1496 1494 1495 1493 1484 1474 1479 1485 1486 1484 1483 1485 1487 1489 1490 1492 1494 1497 1499 1501 1504 1506 1509 1513 1516 1520 1524 1527 1530 1533 1535 1538 1541 1543 1544 1545 1545 1546 1546
1500 1501 1490 1488 1486 1487 1488 1492 1490 1483 1475 1480 1486 1487 1483 1483 1484 1484 1485 1488 1490 1493 1496 1498 1500 1501 1504 1506 1511 1514 1518 1523 1525 1529 1532 1534 1537 1540 1542 1543 1544 1545 1545 1546
1500 1491 1484 1485 1484 1485 1485 1486 1485 1485 1482 1483 1487 1494 1488 1484 1483 1483 1484 1485 1488 1490 1493 1496 1498 1500 1502 1505 1509 1513 1517 1520 1524 1527 1530 1534 1536 1538 1540 1542 1543 1544 1545 1546
1491 1483 1483 1485 1484 1482 1489 1475 1475 1478 1489 1501 1496 1510 1495 1487 1485 1484 1484 1485 1486 1489 1491 1494 1496 1498 1500 1503 1508 1511 1515 1519 1522 1525 1528 1530 1533 1535 1538 1540 1542 1544 1545 1545
1487 1480 1481 1483 1478 1475 1478 1471 1474 1479 1491 1504 1502 1509 1503 1490 1489 1485 1483 1484 1485 1486 1489 1491 1494 1496 1499 1503 1506 1509 1513 1517 1520 1523 1526 1529 1532 1534 1537 1539 1541 1543 1544 1545
1477 1473 1474 1474 1469 1469 1470 1474 1481 1489 1500 1515 1508 1512 1508 1495 1489 1484 1482 1482 1484 1485 1487 1490 1492 1496 1498 1501 1504 1507 1510 1514 1517 1521 1524 1527 1530 1532 1535 1537 1539 1541 1543 1544
1481 1473 1468 1467 1471 1469 1471 1489 1509 1514 1522 1520 1507 1509 1505 1485 1480 1480 1479 1479 1481 1483 1485 1488 1491 1494 1496 1499 1501 1504 1508 1511 1514 1518 1521 1524 1527 1530 1532 1534 1537 1539 1541 1542
1491 1487 1467 1462 1466 1472 1472 1483 1508 1520 1523 1520 1510 1510 1495 1479 1477 1476 1476 1477 1479 1481 1484 1486 1488 1491 1493 1496 1498 1501 1505 1508 1512 1515 1518 1522 1525 1527 1530 1532 1535 1537 1539 1540
1482 1480 1458 1455 1455 1461 1471 1477 1480 1500 1508 1519 1514 1504 1489 1478 1476 1475 1475 1476 1477 1478 1481 1483 1486 1488 1491 1493 1495 1498 1502 1506 1509 1512 1516 1519 1522 1524 1527 1530 1532 1535 1537 1539
1464 1475 1460 1453 1453 1456 1461 1468 1486 1499 1514 1521 1514 1508 1500 1484 1479 1476 1475 1475 1476 1477 1479 1481 1484 1486 1489 1491 1494 1497 1500 1503 1507 1510 1514 1517 1520 1523 1526 1528 1531 1533 1535 1537
1457 1471 1465 1459 1462 1464 1465 1471 1481 1494 1500 1515 1520 1509 1481 1478 1475 1475 1473 1473 1474 1475 1477 1479 1482 1484 1487 1490 1493 1496 1499 1502 1505 1508 1511 1515 1518 1521 1524 1526 1529 1531 1533 1534
1454 1466 1474 1466 1456 1452 1458 1466 1478 1494 1500 1501 1508 1502 1472 1472 1471 1471 1471 1471 1472 1474 1475 1477 1480 1483 1485 1488 1491 1493 1496 1500 1503 1506 1509 1513 1516 1519 1521 1524 1526 1528 1530 1531
1454 1467 1481 1479 1472 1463 1463 1464 1470 1480 1492 1500 1505 1496 1471 1471 1470 1469 1469 1468 1470 1472 1475 1477 1479 1482 1484 1486 1489 1491 1494 1497 1500 1504 1507 1510 1513 1516 1518 1521 1523 1525 1527 1528
1451 1464 1474 1482 1477 1468 1466 1464 1466 1476 1491 1494 1489 1482 1475 1472 1471 1470 1469 1468 1469 1472 1475 1476 1478 1480 1483 1485 1487 1490 1493 1496 1499 1502 1505 1507 1510 1513 1515 1518 1520 1522 1524 1525
1454 1465 1463 1460 1456 1457 1458 1459 1460 1466 1472 1480 1476 1474 1471 1468 1468 1469 1468 1469 1470 1473 1475 1476 1478 1480 1482 1484 1486 1489 1491 1495 1498 1500 1503 1505 1508 1510 1513 1515 1517 1518 1520 1521
1457 1464 1462 1460 1453 1455 1456 1453 1454 1457 1460 1466 1468 1469 1463 1464 1466 1468 1468 1469 1471 1473 1474 1476 1478 1480 1482 1484 1486 1488 1490 1493 1496 1498 1500 1502 1505 1507 1509 1510 1513 1514 1515 1517
1460 1464 1468 1471 1460 1457 1464 1455 1453 1455 1454 1460 1466 1464 1461 1464 1466 1467 1467 1469 1471 1472 1474 1476 1477 1479 1481 1483 1485 1487 1489 1491 1493 1495 1497 1499 1502 1503 1505 1506 1508 1509 1510 1511
1458 1462 1470 1473 1470 1478 1461 1448 1446 1450 1454 1454 1456 1459 1461 1465 1468 1469 1470 1470 1472 1473 1474 1477 1478 1479 1481 1483 1485 1487 1489 1490 1492 1493 1494 1496 1497 1499 1501 1502 1503 1504 1505 1506
1452 1458 1468 1475 1476 1469 1456 1450 1449 1454 1459 1454 1455 1460 1464 1467 1469 1474 1475 1474 1475 1476 1477 1478 1480 1481 1482 1484 1486 1488 1489 1490 1492 1493 1494 1495 1495 1497 1498 1499 1499 1499 1500 1501
1452 1455 1464 1470 1473 1473 1459 1448 1447 1453 1465 1457 1455 1458 1462 1464 1473 1480 1479 1478 1478 1479 1480 1481 1482 1483 1484 1486 1487 1488 1489 1491 1492 1493 1494 1494 1495 1496 1497 1497 1497 1497 1497 1497
1461 1462 1464 1467 1469 1462 1450 1447 1448 1464 1463 1456 1456 1457 1460 1463 1469 1477 1479 1481 1482 1483 1484 1484 1485 1485 1487 1488 1489 1490 1491 1492 1494 1494 1495 1495 1495 1496 1496 1497 1496 1496 1496 1496
1462 1463 1463 1465 1469 1465 1448 1448 1452 1454 1452 1453 1457 1459 1461 1465 1471 1476 1479 1484 1486 1486 1486 1487 1487 1488 1491 1492 1491 1491 1493 1495 1496 1496 1496 1496 1496 1496 1496 1496 1496 1496 1496 1497
1459 1459 1458 1460 1461 1453 1447 1448 1449 1449 1451 1454 1458 1460 1463 1468 1473 1478 1482 1486 1488 1489 1490 1491 1491 1492 1494 1495 1495 1494 1496 1498 1498 1498 1497 1498 1497 1497 1497 1497 1497 1497 1498 1498
1456 1454 1456 1457 1454 1451 1449 1449 1450 1451 1452 1455 1459 1462 1466 1470 1475 1480 1484 1488 1491 1493 1493 1494 1495 1495 1497 1499 1499 1499 1500 1500 1500 1500 1500 1499 1499 1498 1498 1498 1498 1497 1497 1497
1454 1454 1454 1455 1454 1451 1452 1452 1453 1455 1456 1459 1463 1466 1469 1472 1478 1482 1486 1490 1493 1495 1496 1497 1498 1499 1501 1502 1502 1503 1503 1503 1502 1502 1502 1501 1501 1500 1499 1499 1498 1498 1497 1497
1452 1452 1452 1454 1452 1453 1456 1455 1456 1457 1460 1463 1466 1470 1474 1476 1481 1485 1489 1493 1495 1498 1500 1501 1502 1503 1504 1505 1505 1506 1506 1505 1504 1503 1503 1502 1502 1501 1500 1499 1498 1497 1497 1495